Wrangell, AK

3:42 AM AKDT on April 29, 2017 (GMT -0800)
Wrangell

Weather History for PAWG - January, 2013

Change the Weather History Date:

Saturday, January 5, 2013

  Actual Average Record
Temperature  
Mean Temperature 38 °F -  
Max Temperature 42 °F 32 °F 53 °F (2002)
Min Temperature 35 °F 21 °F 3 °F (1965)
Degree Days  
Heating Degree Days 26    
Moisture  
Dew Point 33 °F    
Average Humidity 75    
Maximum Humidity 87    
Minimum Humidity 61    
Precipitation  
Precipitation 0.06 in - - ()
Sea Level Pressure  
Sea Level Pressure 29.76 in    
Wind  
Wind Speed 9 mph (ESE)    
Max Wind Speed 21 mph    
Max Gust Speed 29 mph    
Visibility 10 miles    
Events      
Averages and records for this station are not official NWS values.
T = Trace of Precipitation, MM = Missing Value Source: NWS Daily Summary

Daily Weather History Graph

Daily Weather History Graph

Search for Another Location

Airport or City:

Trip Planner

Search our weather history database for the weather conditions in past years. The results will help you decide how hot, cold, wet, or windy it might be!

Date:

Astronomy

Jan. 05, 2013 Rise Set
Actual Time 8:21 AM AKST 3:28 PM AKST
Civil Twilight 7:34 AM AKST 4:15 PM AKST
Nautical Twilight 6:45 AM AKST 5:04 PM AKST
Astronomical Twilight 5:59 AM AKST 5:50 PM AKST
Moon 12:55 AM AKST (1/5) 10:58 AM AKST (1/5)
Length of Visible Light 8h 41m
Length of Day
7h 06m
Last Quarter, 42% of the Moon is Illuminated
Jan 5
Last Quarter
Jan 11
New
Jan 18
First Quarter
Jan 26
Full
Feb 3
Last Quarter

Hourly Weather History & Observations

Time (AKST) Temp. Windchill Dew Point Humidity Pressure Visibility Wind Dir Wind Speed Gust Speed Precip Events Conditions
12:16 AM 39.2 °F 33.0 °F 32.0 °F 75% 29.92 in 10.0 mi ESE 9.2 mph - N/A   Overcast
12:36 AM 39.2 °F 33.0 °F 32.0 °F 75% 29.91 in 10.0 mi ESE 9.2 mph - N/A   Overcast
12:56 AM 39.2 °F 34.2 °F 32.0 °F 75% 29.91 in 10.0 mi SSE 6.9 mph - N/A   Overcast
1:16 AM 39.2 °F 35.9 °F 30.2 °F 70% 29.91 in 10.0 mi SW 4.6 mph - N/A   Overcast
1:36 AM 39.2 °F 37.0 °F 32.0 °F 75% 29.90 in 10.0 mi East 3.5 mph - N/A   Overcast
1:56 AM 39.2 °F 33.0 °F 30.2 °F 70% 29.90 in 10.0 mi NW 9.2 mph - N/A   Overcast
2:16 AM 39.2 °F - 30.2 °F 70% 29.89 in 10.0 mi Calm Calm - N/A   Overcast
2:36 AM 37.4 °F 34.9 °F 30.2 °F 75% 29.89 in 10.0 mi SW 3.5 mph - N/A   Overcast
3:16 AM 41.0 °F - 33.8 °F 76% 29.88 in 10.0 mi Calm Calm - N/A   Overcast
3:36 AM 42.8 °F 36.6 °F 33.8 °F 70% 29.86 in 10.0 mi East 11.5 mph - N/A   Overcast
3:56 AM 42.8 °F 37.0 °F 33.8 °F 70% 29.85 in 10.0 mi East 10.4 mph - N/A   Mostly Cloudy
4:16 AM 42.8 °F 37.0 °F 33.8 °F 70% 29.84 in 10.0 mi East 10.4 mph - N/A   Mostly Cloudy
4:36 AM 42.8 °F 37.0 °F 33.8 °F 70% 29.82 in 10.0 mi East 10.4 mph - N/A   Mostly Cloudy
4:56 AM 42.8 °F 37.5 °F 33.8 °F 70% 29.82 in 10.0 mi East 9.2 mph - N/A   Overcast
5:16 AM 42.8 °F 37.0 °F 33.8 °F 70% 29.81 in 10.0 mi East 10.4 mph - N/A   Overcast
5:36 AM 42.8 °F 37.0 °F 33.8 °F 70% 29.81 in 10.0 mi East 10.4 mph - N/A   Overcast
5:56 AM 42.8 °F 38.6 °F 33.8 °F 70% 29.80 in 10.0 mi East 6.9 mph - N/A   Overcast
6:16 AM 42.8 °F 38.0 °F 33.8 °F 70% 29.79 in 10.0 mi East 8.1 mph - N/A   Overcast
6:56 AM 41.0 °F 35.2 °F 33.8 °F 76% 29.78 in 10.0 mi East 9.2 mph - N/A   Overcast
7:16 AM 41.0 °F 34.7 °F 33.8 °F 76% 29.77 in 10.0 mi East 10.4 mph - N/A   Overcast
7:36 AM 41.0 °F 35.2 °F 33.8 °F 76% 29.76 in 10.0 mi East 9.2 mph - N/A   Overcast
7:56 AM 41.0 °F 34.3 °F 33.8 °F 76% 29.75 in 10.0 mi East 11.5 mph - N/A   Overcast
8:16 AM 41.0 °F 35.8 °F 33.8 °F 76% 29.75 in 10.0 mi East 8.1 mph - N/A   Overcast
8:36 AM 42.8 °F 37.0 °F 33.8 °F 70% 29.74 in 10.0 mi ENE 10.4 mph - N/A   Overcast
8:56 AM 41.0 °F 34.7 °F 33.8 °F 76% 29.73 in 10.0 mi East 10.4 mph - N/A   Overcast
9:16 AM 42.8 °F 37.0 °F 33.8 °F 70% 29.73 in 10.0 mi East 10.4 mph - N/A   Overcast
9:36 AM 42.8 °F 36.2 °F 33.8 °F 70% 29.72 in 10.0 mi East 12.7 mph - N/A   Overcast
9:56 AM 42.8 °F 35.4 °F 33.8 °F 70% 29.71 in 10.0 mi East 15.0 mph - N/A   Overcast
10:16 AM 41.0 °F 33.5 °F 33.8 °F 76% 29.70 in 10.0 mi East 13.8 mph - N/A   Overcast
10:36 AM 41.0 °F 33.9 °F 33.8 °F 76% 29.70 in 10.0 mi East 12.7 mph - N/A   Overcast
10:56 AM 41.0 °F 34.3 °F 33.8 °F 76% 29.69 in 10.0 mi East 11.5 mph - N/A   Overcast
11:16 AM 41.0 °F 34.3 °F 33.8 °F 76% 29.69 in 10.0 mi East 11.5 mph - N/A   Overcast
11:36 AM 41.0 °F 34.7 °F 33.8 °F 76% 29.68 in 10.0 mi East 10.4 mph - N/A   Overcast
11:56 AM 39.2 °F 32.5 °F 33.8 °F 81% 29.68 in 10.0 mi East 10.4 mph - N/A   Overcast
12:16 PM 39.2 °F 33.6 °F 33.8 °F 81% 29.68 in 10.0 mi East 8.1 mph - 0.01 in   Overcast
12:36 PM 39.2 °F 32.5 °F 33.8 °F 81% 29.68 in 10.0 mi East 10.4 mph - 0.02 in   Overcast
12:56 PM 39.2 °F 32.0 °F 33.8 °F 81% 29.67 in 10.0 mi East 11.5 mph - 0.04 in   Overcast
1:16 PM 39.2 °F 32.0 °F 35.6 °F 87% 29.67 in 10.0 mi East 11.5 mph - 0.02 in   Overcast
1:56 PM 41.0 °F 33.1 °F 33.8 °F 76% 29.68 in 10.0 mi SE 15.0 mph 21.9 mph 0.02 in   Overcast
2:16 PM 41.0 °F 32.5 °F 33.8 °F 76% 29.69 in 10.0 mi SSE 17.3 mph 25.3 mph N/A   Overcast
2:36 PM 42.8 °F 34.8 °F 32.0 °F 66% 29.69 in 10.0 mi SE 17.3 mph 28.8 mph N/A   Overcast
2:56 PM 42.8 °F 35.1 °F 33.8 °F 70% 29.70 in 10.0 mi SE 16.1 mph 26.5 mph N/A   Overcast
3:16 PM 42.8 °F 34.0 °F 33.8 °F 70% 29.71 in 10.0 mi ESE 20.7 mph 26.5 mph N/A   Overcast
3:36 PM 42.8 °F 34.0 °F 32.0 °F 66% 29.71 in 10.0 mi SE 20.7 mph 28.8 mph N/A   Overcast
3:56 PM 42.8 °F 34.3 °F 30.2 °F 61% 29.71 in 10.0 mi SSE 19.6 mph 27.6 mph N/A   Overcast
4:16 PM 41.0 °F 34.3 °F 32.0 °F 70% 29.73 in 10.0 mi SSE 11.5 mph 21.9 mph N/A   Overcast
4:36 PM 41.0 °F 34.7 °F 32.0 °F 70% 29.75 in 10.0 mi SE 10.4 mph - N/A   Overcast
4:56 PM 41.0 °F 34.3 °F 33.8 °F 76% 29.74 in 10.0 mi ESE 11.5 mph 17.3 mph N/A   Partly Cloudy
5:16 PM 41.0 °F 34.3 °F 32.0 °F 70% 29.74 in 10.0 mi ESE 11.5 mph - N/A   Mostly Cloudy
5:36 PM 39.2 °F 33.6 °F 33.8 °F 81% 29.74 in 10.0 mi ESE 8.1 mph - N/A   Mostly Cloudy
5:56 PM 39.2 °F 35.9 °F 33.8 °F 81% 29.74 in 10.0 mi SSE 4.6 mph - N/A   Partly Cloudy
6:16 PM 39.2 °F 34.2 °F 32.0 °F 75% 29.74 in 10.0 mi East 6.9 mph - N/A   Partly Cloudy
6:36 PM 39.2 °F 34.2 °F 33.8 °F 81% 29.73 in 10.0 mi ENE 6.9 mph - N/A   Partly Cloudy
6:56 PM 39.2 °F 35.0 °F 33.8 °F 81% 29.74 in 10.0 mi East 5.8 mph - N/A   Overcast
7:16 PM 39.2 °F 33.6 °F 32.0 °F 75% 29.73 in 10.0 mi East 8.1 mph - N/A   Overcast
7:36 PM 39.2 °F 33.6 °F 33.8 °F 81% 29.73 in 10.0 mi East 8.1 mph - N/A   Overcast
7:56 PM 39.2 °F 35.0 °F 30.2 °F 70% 29.73 in 10.0 mi South 5.8 mph - N/A   Overcast
8:16 PM 37.4 °F 32.1 °F 30.2 °F 75% 29.72 in 10.0 mi SE 6.9 mph - N/A   Overcast
8:36 PM 37.4 °F 32.8 °F 32.0 °F 81% 29.72 in 10.0 mi ESE 5.8 mph - N/A   Overcast
8:56 PM 37.4 °F 32.8 °F 32.0 °F 81% 29.72 in 10.0 mi SSE 5.8 mph - N/A   Overcast
9:16 PM 35.6 °F 31.7 °F 30.2 °F 81% 29.72 in 10.0 mi SE 4.6 mph - N/A   Overcast
9:36 PM 37.4 °F 32.8 °F 32.0 °F 81% 29.72 in 10.0 mi ESE 5.8 mph - N/A   Overcast
9:56 PM 37.4 °F 31.4 °F 32.0 °F 81% 29.72 in 10.0 mi ESE 8.1 mph - N/A   Overcast
10:16 PM 37.4 °F - 30.2 °F 75% 29.74 in 10.0 mi Calm Calm - N/A   Overcast
10:36 PM 37.4 °F 29.8 °F 33.8 °F 87% 29.73 in 10.0 mi East 11.5 mph - N/A   Overcast
10:56 PM 37.4 °F 30.8 °F 33.8 °F 87% 29.73 in 10.0 mi East 9.2 mph - N/A   Overcast
11:16 PM 37.4 °F 32.8 °F 32.0 °F 81% 29.74 in 10.0 mi SE 5.8 mph - N/A   Overcast
11:36 PM 37.4 °F 32.1 °F 30.2 °F 75% 29.73 in 10.0 mi SSE 6.9 mph - N/A   Overcast
11:56 PM 37.4 °F 33.8 °F 30.2 °F 75% 29.74 in 10.0 mi NNE 4.6 mph - N/A   Overcast